<?xml version="1.0"?>
<gpx xmlns="http://www.topografix.com/GPX/1/1" xmlns:xsi="http://www.w3.org/2001/XMLSchema-instance" version="1.1" creator="GPX RubyGem 1.0.0 -- http://dougfales.github.io/gpx/" xsi:schemaLocation="http://www.topografix.com/GPX/1/1 http://www.topografix.com/GPX/1/1/gpx.xsd">
  <metadata>
    <name/>
    <time>2026-05-08T17:22:10+00:00</time>
    <bound minlat="90.0" minlon="180.0" maxlat="-90.0" maxlon="-180.0"/>
  </metadata>
  <trk>
    <name/>
    <trkseg>
      <trkpt lat="49.626822" lon="10.706204">
        <time>1970-01-01T00:00:00+00:00</time>
        <ele>310.0</ele>
      </trkpt>
      <trkpt lat="49.626805" lon="10.706105">
        <time>1970-01-01T00:00:00+00:00</time>
        <ele>310.0</ele>
      </trkpt>
      <trkpt lat="49.6267" lon="10.70576">
        <time>1970-01-01T00:00:00+00:00</time>
        <ele>314.0</ele>
      </trkpt>
      <trkpt lat="49.626432" lon="10.706113">
        <time>1970-01-01T00:00:00+00:00</time>
        <ele>313.0</ele>
      </trkpt>
      <trkpt lat="49.626223" lon="10.706363">
        <time>1970-01-01T00:00:00+00:00</time>
        <ele>317.0</ele>
      </trkpt>
      <trkpt lat="49.62601" lon="10.70654">
        <time>1970-01-01T00:00:00+00:00</time>
        <ele>320.0</ele>
      </trkpt>
      <trkpt lat="49.625829" lon="10.706666">
        <time>1970-01-01T00:00:00+00:00</time>
        <ele>319.0</ele>
      </trkpt>
      <trkpt lat="49.625545" lon="10.706743">
        <time>1970-01-01T00:00:00+00:00</time>
        <ele>320.0</ele>
      </trkpt>
      <trkpt lat="49.625481" lon="10.706938">
        <time>1970-01-01T00:00:00+00:00</time>
        <ele>321.0</ele>
      </trkpt>
      <trkpt lat="49.625261" lon="10.707446">
        <time>1970-01-01T00:00:00+00:00</time>
        <ele>323.0</ele>
      </trkpt>
      <trkpt lat="49.624972" lon="10.707981">
        <time>1970-01-01T00:00:00+00:00</time>
        <ele>323.0</ele>
      </trkpt>
      <trkpt lat="49.624536" lon="10.708707">
        <time>1970-01-01T00:00:00+00:00</time>
        <ele>323.0</ele>
      </trkpt>
      <trkpt lat="49.623882" lon="10.709687">
        <time>1970-01-01T00:00:00+00:00</time>
        <ele>324.0</ele>
      </trkpt>
      <trkpt lat="49.623738" lon="10.709874">
        <time>1970-01-01T00:00:00+00:00</time>
        <ele>323.0</ele>
      </trkpt>
      <trkpt lat="49.623451" lon="10.710247">
        <time>1970-01-01T00:00:00+00:00</time>
        <ele>324.0</ele>
      </trkpt>
      <trkpt lat="49.622941" lon="10.710624">
        <time>1970-01-01T00:00:00+00:00</time>
        <ele>322.0</ele>
      </trkpt>
      <trkpt lat="49.622488" lon="10.710812">
        <time>1970-01-01T00:00:00+00:00</time>
        <ele>322.0</ele>
      </trkpt>
      <trkpt lat="49.621749" lon="10.711019">
        <time>1970-01-01T00:00:00+00:00</time>
        <ele>318.0</ele>
      </trkpt>
      <trkpt lat="49.621399" lon="10.711113">
        <time>1970-01-01T00:00:00+00:00</time>
        <ele>318.0</ele>
      </trkpt>
      <trkpt lat="49.62121" lon="10.711189">
        <time>1970-01-01T00:00:00+00:00</time>
        <ele>318.0</ele>
      </trkpt>
      <trkpt lat="49.620994" lon="10.711315">
        <time>1970-01-01T00:00:00+00:00</time>
        <ele>318.0</ele>
      </trkpt>
      <trkpt lat="49.620661" lon="10.711552">
        <time>1970-01-01T00:00:00+00:00</time>
        <ele>319.0</ele>
      </trkpt>
      <trkpt lat="49.620311" lon="10.711924">
        <time>1970-01-01T00:00:00+00:00</time>
        <ele>320.0</ele>
      </trkpt>
      <trkpt lat="49.619965" lon="10.712342">
        <time>1970-01-01T00:00:00+00:00</time>
        <ele>321.0</ele>
      </trkpt>
      <trkpt lat="49.619749" lon="10.712498">
        <time>1970-01-01T00:00:00+00:00</time>
        <ele>325.0</ele>
      </trkpt>
      <trkpt lat="49.619619" lon="10.712505">
        <time>1970-01-01T00:00:00+00:00</time>
        <ele>327.0</ele>
      </trkpt>
      <trkpt lat="49.619519" lon="10.712385">
        <time>1970-01-01T00:00:00+00:00</time>
        <ele>327.0</ele>
      </trkpt>
      <trkpt lat="49.619225" lon="10.711615">
        <time>1970-01-01T00:00:00+00:00</time>
        <ele>324.0</ele>
      </trkpt>
      <trkpt lat="49.619225" lon="10.711615">
        <time>1970-01-01T00:00:00+00:00</time>
        <ele>324.0</ele>
      </trkpt>
      <trkpt lat="49.619519" lon="10.712385">
        <time>1970-01-01T00:00:00+00:00</time>
        <ele>327.0</ele>
      </trkpt>
      <trkpt lat="49.619619" lon="10.712505">
        <time>1970-01-01T00:00:00+00:00</time>
        <ele>327.0</ele>
      </trkpt>
      <trkpt lat="49.619749" lon="10.712498">
        <time>1970-01-01T00:00:00+00:00</time>
        <ele>325.0</ele>
      </trkpt>
      <trkpt lat="49.619965" lon="10.712342">
        <time>1970-01-01T00:00:00+00:00</time>
        <ele>321.0</ele>
      </trkpt>
      <trkpt lat="49.620311" lon="10.711924">
        <time>1970-01-01T00:00:00+00:00</time>
        <ele>320.0</ele>
      </trkpt>
      <trkpt lat="49.620661" lon="10.711552">
        <time>1970-01-01T00:00:00+00:00</time>
        <ele>319.0</ele>
      </trkpt>
      <trkpt lat="49.620994" lon="10.711315">
        <time>1970-01-01T00:00:00+00:00</time>
        <ele>318.0</ele>
      </trkpt>
      <trkpt lat="49.62121" lon="10.711189">
        <time>1970-01-01T00:00:00+00:00</time>
        <ele>318.0</ele>
      </trkpt>
      <trkpt lat="49.621399" lon="10.711113">
        <time>1970-01-01T00:00:00+00:00</time>
        <ele>318.0</ele>
      </trkpt>
      <trkpt lat="49.621749" lon="10.711019">
        <time>1970-01-01T00:00:00+00:00</time>
        <ele>318.0</ele>
      </trkpt>
      <trkpt lat="49.622488" lon="10.710812">
        <time>1970-01-01T00:00:00+00:00</time>
        <ele>322.0</ele>
      </trkpt>
      <trkpt lat="49.622941" lon="10.710624">
        <time>1970-01-01T00:00:00+00:00</time>
        <ele>322.0</ele>
      </trkpt>
      <trkpt lat="49.623451" lon="10.710247">
        <time>1970-01-01T00:00:00+00:00</time>
        <ele>324.0</ele>
      </trkpt>
      <trkpt lat="49.623738" lon="10.709874">
        <time>1970-01-01T00:00:00+00:00</time>
        <ele>323.0</ele>
      </trkpt>
      <trkpt lat="49.623882" lon="10.709687">
        <time>1970-01-01T00:00:00+00:00</time>
        <ele>324.0</ele>
      </trkpt>
      <trkpt lat="49.624536" lon="10.708707">
        <time>1970-01-01T00:00:00+00:00</time>
        <ele>323.0</ele>
      </trkpt>
      <trkpt lat="49.624972" lon="10.707981">
        <time>1970-01-01T00:00:00+00:00</time>
        <ele>323.0</ele>
      </trkpt>
      <trkpt lat="49.625261" lon="10.707446">
        <time>1970-01-01T00:00:00+00:00</time>
        <ele>323.0</ele>
      </trkpt>
      <trkpt lat="49.625481" lon="10.706938">
        <time>1970-01-01T00:00:00+00:00</time>
        <ele>321.0</ele>
      </trkpt>
      <trkpt lat="49.625545" lon="10.706743">
        <time>1970-01-01T00:00:00+00:00</time>
        <ele>320.0</ele>
      </trkpt>
      <trkpt lat="49.625829" lon="10.706666">
        <time>1970-01-01T00:00:00+00:00</time>
        <ele>319.0</ele>
      </trkpt>
      <trkpt lat="49.62601" lon="10.70654">
        <time>1970-01-01T00:00:00+00:00</time>
        <ele>320.0</ele>
      </trkpt>
      <trkpt lat="49.626223" lon="10.706363">
        <time>1970-01-01T00:00:00+00:00</time>
        <ele>317.0</ele>
      </trkpt>
      <trkpt lat="49.626432" lon="10.706113">
        <time>1970-01-01T00:00:00+00:00</time>
        <ele>313.0</ele>
      </trkpt>
      <trkpt lat="49.6267" lon="10.70576">
        <time>1970-01-01T00:00:00+00:00</time>
        <ele>314.0</ele>
      </trkpt>
      <trkpt lat="49.626805" lon="10.706105">
        <time>1970-01-01T00:00:00+00:00</time>
        <ele>310.0</ele>
      </trkpt>
      <trkpt lat="49.626822" lon="10.706204">
        <time>1970-01-01T00:00:00+00:00</time>
        <ele>310.0</ele>
      </trkpt>
    </trkseg>
  </trk>
</gpx>
